{"data":{"norad_id":62700,"epoch":"2026-09-22T17:24:02.305152Z","epoch_age_seconds":127330,"freshness":"FRESH","line1":"1 62700U 25009CV  26265.72502668  .00001317  00000+0  11876-3 0  9995","line2":"2 62700  97.7017 343.8311 0002913  71.4963 288.6575 14.97249744 92009","mean_motion":14.97249744,"eccentricity":0.0002913,"inclination_deg":97.7017,"raan_deg":343.8311,"arg_perigee_deg":71.4963,"mean_anomaly_deg":288.6575,"bstar":0.00011876,"rev_number":9200,"period_min":96.176339703552,"perigee_km":573.37293698037,"apogee_km":577.42406676376,"semimajor_km":6953.5355018721,"source":"CELESTRAK","updated_at":"2026-09-23T09:00:21.582979Z"}}